www.pogodaiklimat.ru

Погода и климат >> Архив погоды >> Россия >> Якутия >> Делянкир


ПОГОДА в Делянкире

  • Прогноз погоды в Делянкире
  • Монитор погоды в Делянкире

АРХИВ ПОГОДЫ в Делянкире

Время (UTC), дата Ветер
(напр.,м/с)
 
Видим.   Явления Облачность Т
(С)
Тd
(С)
f
(%)
Тe
(С)
Тes
(С)
Комфортность P
(гПа)
Po
(гПа)
Тmin
(С)
Tmax
(С)
R
(мм)
R24
(мм)
S
(см)
09 18.06 ЮВ 1 50 км 10/10 1000 м
[Sc]
+13.8 +5.3 56 +14 +14 1010.0 919.2 +16.2
12 18.06 З 1 50 км 9/9 1000 м
[Sc]
+10.7 +7.4 80 +10 +10 1011.1 919.3
15 18.06 ЮЗ 1 50 км 8/6 1000 м
[Sc As trans]
+4.2 -0.6 71 +3 +3 1014.0 919.7
18 18.06 штиль 0 50 км 9/9 1000 м
[Sc]
+6.0 +4.6 91 +5 +5 1013.3 919.7
21 18.06 штиль 0 50 км 10/10 1000 м
[Sc]
+8.2 +6.9 92 +7 +7 1012.7 919.9 +3.7
00 19.06 СЗ 1 50 км 10/10 1000 м
[Sc]
+12.7 +7.1 69 +13 +13 1011.5 920.4
03 19.06 штиль 0 50 км 10/10 1000 м
[Sc]
+15.4 +7.1 58 +15 +15 1010.5 920.1
06 19.06 В 2 50 км 10/10 1000 м
[Sc]
+15.7 +6.0 52 +16 +16 1010.2 919.9
09 19.06 В 1 50 км 10/10 1000 м
[Sc]
+14.4 +7.5 63 +15 +15 1010.2 919.5 +16.4
12 19.06 штиль 0 50 км 9/9 1000 м
[Sc]
+12.4 +9.0 80 +12 +12 1010.8 919.5
15 19.06 СЗ 1 50 км 10/10 1000 м
[Sc]
+8.8 +7.5 92 +8 +8 1012.2 919.6
18 19.06 штиль 0 50 км 10/10 1000 м
[Sc]
+8.0 +6.9 93 +7 +7 1011.6 918.9
21 19.06 штиль 0 50 км 10/10 1000 м
[Sc]
+11.2 +8.4 83 +11 +11 1010.8 919.2 +7.8
00 20.06 СЗ 1 20 км слаб. ливневой дождь 10/10 600 м
[Cb cap]
+12.3 +11.1 92 +13 +13 1010.2 919.1
03 20.06 штиль 0 50 км {ливн. осадки} 10/6 1000 м
[Sc As trans]
+15.2 +9.6 69 -15 -13 1008.3 918.1
06 20.06 С 1 50 км {ливн. осадки} 9/4 1000 м
[Sc As trans Ci fib]
+14.6 +9.4 71 +15 +18 1008.2 917.8
09 20.06 Ю 1 20 км дождь 10/10 1000 м
[Sc]
+12.3 +10.4 88 +12 +12 1008.5 917.5 +15.9 0.9
12 20.06 З 1 50 км {дождь} 10/8 1000 м
[Sc As op]
+11.7 +8.9 83 +12 +12 1008.6 917.3
15 20.06 штиль 0 50 км 10/8 1000 м
[Sc As op]
+3.9 +0.5 78 +3 +3 1012.0 917.8
18 20.06 штиль 0 50 км 10/8 1000 м
[Sc As op]
+6.6 +4.8 88 +6 +6 1012.2 918.9
21 20.06 З 1 50 км 10/8 1000 м
[Sc As op]
+9.0 +7.1 88 +8 +9 1011.4 919.0 +3.4 2
00 21.06 С 1 50 км 9/8 1000 м
[Cu Sc As trans]
+13.8 +11.0 83 +14 +16 1009.7 919.0
03 21.06 С 1 50 км {ливн. осадки} 10/8 600 м
[Cb cap As op]
+16.5 +10.1 66 +17 +18 1008.8 919.0
06 21.06 штиль 0 10 км ливневой дождь 10/8 600 м
[Cb cap As op]
+13.4 +11.5 88 +13 +13 1010.6 919.8
09 21.06 штиль 0 50 км {ливн. осадки} 9/8 600 м
[Cb cap As trans]
+14.8 +10.6 76 +15 +15 1010.2 919.8 +17.5 2
12 21.06 штиль 0 50 км {ливн. осадки} 9/9 1000 м
[Sc]
+12.8 +10.7 87 +12 +12 1011.0 919.9
15 21.06 штиль 0 50 км 9/9 1000 м
[Sc]
+6.9 +4.8 86 +6 +6 1013.5 920.3
18 21.06 штиль 0 50 км 9/9 1000 м
[Sc]
+8.3 +5.2 81 +8 +8 1014.0 921.1
21 21.06 В 1 20 км дождь 10/8 1000 м
[Sc As op]
+9.9 +7.8 87 +9 +10 1014.2 921.8 +6.9 1
00 22.06 СЗ 1 50 км {дождь} 8/8 1000 м
[Cu Sc]
+12.7 +8.3 75 +13 +15 1013.0 921.6
03 22.06 З 2 50 км 8/8 1000 м
[Sc]
+16.4 +8.4 59 +17 +19 1010.8 920.7
06 22.06 В 1 20 км слаб. дождь 10/10 1000 м
[Sc]
+14.2 +1.1 41 +15 +15 1011.7 921.0
09 22.06 В 1 50 км {дождь} 8/8 1000 м
[Sc]
+15.0 +10.7 75 +16 +16 1011.0 920.5 +17.2 3
12 22.06 В 1 50 км {дождь} 8/6 1000 м
[Sc As trans]
+11.8 +11.0 95 +12 +12 1011.5 920.1
15 22.06 В 1 50 км 10/10 1000 м
[Sc]
+7.3 +4.8 84 +6 +6 1014.1 920.9
18 22.06 ЮВ 1 50 км 10/10 1000 м
[Sc]
+7.7 +6.2 90 +7 +7 1013.9 920.9
21 22.06 штиль 0 50 км 9/9 1000 м
[Sc]
+10.4 +9.4 94 +10 +10 1012.8 920.7 +6.9 1
00 23.06 Ю 1 50 км 9/9 1000 м
[Cu Sc]
+14.0 +9.3 73 +14 +16 1010.9 920.1
03 23.06 В 1 20 км дождь 10/0 600 м
[As op]
+11.5 +9.1 85 +11 +14 1010.9 919.4
06 23.06 З 1 50 км {дождь} 8/6 1000 м
[Cu Sc As trans]
+18.0 +7.1 49 +19 +22 1007.6 918.3
09 23.06 Ю 1 50 км {дождь} 8/8 1000 м
[Sc]
+17.2 +8.5 57 +18 +19 1007.9 918.4 +18.5 4
12 23.06 штиль 0 50 км {ливн. осадки, дождь} 8/8 1000 м
[Sc]
+11.2 +9.4 89 +11 +11 1010.2 918.6
15 23.06 В 1 50 км 10/10 1000 м
[Sc]
+9.7 +8.7 93 +9 +9 1011.1 919.0
18 23.06 В 1 20 км слаб. дождь 10/10 1000 м
[Sc]
+5.3 +3.4 88 +4 +4 1012.6 918.8
21 23.06 штиль 0 50 км {дождь} 10/10 1000 м
[Sc]
+9.7 +7.2 84 +9 +9 1010.7 918.6 +4.9 4
00 24.06 ЮЗ 1 50 км {дождь} 9/9 1000 м
[Sc]
+13.1 +8.1 72 +13 +15 1011.1 920.0
03 24.06 Ю 1 50 км 8/8 1000 м
[Cu Sc]
+15.5 +6.5 55 +16 +19 1010.2 919.9
06 24.06 З 2 50 км 8/8 1000 м
[Cu Sc]
+15.3 +6.0 54 +15 +17 1010.3 919.9
09 24.06 Ю 2 50 км 8/5 1000 м
[Sc As trans]
+16.6 +4.6 45 +17 +17 1010.3 920.3 +18.5
12 24.06 В 1 50 км 8/6 1000 м
[Sc As trans]
+10.1 +3.7 64 +10 +10 1013.4 921.1
15 24.06 штиль 0 50 км {дождь} 9/5 1000 м
[Sc As trans]
+6.9 +3.9 81 +6 +6 1015.4 921.9
18 24.06 ЮВ 1 50 км 9/8 1000 м
[Sc As trans]
+6.0 +5.1 94 +5 +5 1016.1 922.3
21 24.06 В 1 50 км 4/4 1000 м
[Sc]
+9.8 +7.3 84 +9 +12 1014.8 922.4 +6.0 0.9
00 25.06 ЮВ 1 50 км 8/8 600 м
[Cu hum]
+14.6 +4.8 52 +15 +18 1013.2 922.4
03 25.06 В 1 50 км 9/9 1000 м
[Sc]
+16.2 +4.0 44 +17 +19 1012.5 922.1
06 25.06 ЮВ 3 50 км 8/8 1000 м
[Sc]
+17.3 +3.0 38 +17 +19 1011.9 921.9

 

Местоположение метеостанции Делянкир (Якутия, Россия): широта 63.83 долгота 145.60 высота над уровнем моря 801 м.

В архиве по умолчанию представлена погода в Делянкире за последнюю неделю. Архивные данные за месяц целиком и за предыдущие месяцы, начиная с января 2011 года, Вы можете получить, выбрав интересующий диапазон дат из раскрывающегося списка и нажав кнопку "Ввод!".


*Определитесь, кто Вы:
робот инопланетянин человек

Внимание! Время в таблицах - всемирное. Для получения местного времени необходимо прибавить поправку, которая равна 10 ч.

Смотрите также архив погоды в соседних городах и на ближайших метеорологических станциях:

Погода в Оймяконе (Якутия, Россия) (140 км)
Погода в Усть-Нере (Якутия, Россия) (144 км)
Погода в Сусумане (Магаданская область, Россия) (171 км)
Погода в Юртах (Якутия, Россия) (187 км)
Погода в Агаякане (Якутия, Россия) (201 км)
Погода в Колымской (Магаданская область, Россия) (242 км)
Погода в Ягодной (Магаданская область, Россия) (249 км)
Погода в Совхозе Эльген (Магаданская область, Россия) (275 км)
Погода на Озере Джека Лондона (Магаданская область, Россия) (277 км)
Погода в Восточной (Якутия, Россия) (305 км)

Пояснения к столбцам:

Ветер - указаны скорость ветра в м/с - средняя за 10 мин, порывы в срок и между сроками (в фигурных скобках) и направление, откуда дует ветер: С - северный, СВ - северо-восточный, В - восточный, ЮВ - юго-восточный, Ю - южный, ЮЗ - юго-западный, З - западный, СЗ - северо-западный.
Видимость - горизонтальная дальность видимости в метрах или километрах. При видимости от 1 до 10 км при отсутствии осадков обычно наблюдается дымка, при ухудшении видимости до 1 км и менее - туман. В сухую погоду видимость может ухудшаться дымом, пылью или мглою.
Явления - указаны атмосферные явления, наблюдавшиеся в срок или в последний час перед сроком; фигурными скобками обозначены явления, наблюдавшиеся между сроками (за 1-3 часа до срока); квадратными скобками обозначены град или гололедные отложения с указанием их диаметра в мм.
Облачность - указаны через наклонную черту общая и нижняя облачность в баллах и высота нижней границы облаков в метрах; квадратными скобками обозначены формы облаков: Ci - перистые, Cs - перисто-слоистые, Cc - перисто-кучевые, Ac - высококучевые, As - высокослоистые, Sc - слоисто-кучевые, Ns - слоисто-дождевые, Cu - кучевые, Cb - кучево-дождевые. Подробнее классификацию облаков см. в Атласе облаков (PDF).
T - Температура воздуха - температура, измеренная на высоте 2 м над землей.
Td - Температура точки росы - температура, при понижении до которой содержащийся в воздухе водяной пар достигнет насыщения.
f - Относительная влажность воздуха - влажноcть воздуха, измеренная на высоте 2 м над землей.
Te - Эффективная температура - температура, которую ощущает одетый по сезону человек в тени. Характеристика душности погоды. При расчете учитывается влияние влажности воздуха и скорости ветра на теплоощущения человека.
Tes - Эффективная температура на солнце - температура, которую ощущает человек, с поправкой на солнечный нагрев. Характеристика знойности погоды. Зависит от высоты солнца над горизонтом, облачности и скорости ветра. Ночью, в пасмурную погоду, а также при ветре 12 м/с и более поправка равна нулю.
P - Атмосферное давление - приведенное к уровню моря атмосферное давление.
Po - Атмосферное давление - измеренное на уровне метеостанции атмосферное давление.
Tmin - Минимальная температура - минимум температуры воздуха на высоте 2 м над землей.
Tmax - Максимальная температура - максимум температуры воздуха на высоте 2 м над землей.
R - Количество осадков - Количество выпавших осадков за период времени, мм. При наведении курсора мыши на число - период времени, за который выпало указанное количество осадков.
R24 - Количество осадков - Количество выпавших осадков за 24 часа, мм.
S - Снежный покров - Высота снежного покрова, см. При наведении курсора мыши на число - состояние снежного покрова и степень покрытия местности в баллах.